�������l�o���
Date,Time,MP-1(��Sv/h),MP-2(��Sv/h),MP-3(��Sv/h),MP-4(��Sv/h),MP-5(��Sv/h),MP-6(��Sv/h),MP-7(��Sv/h),MP-8(��Sv/h),����,����(m/s),���J
2017/01/26,00:00,1.044,1.782,1.150,2.000,1.384,0.548,1.012,0.943,��,4.1,��
2017/01/26,00:10,1.043,1.776,1.149,2.002,1.382,0.548,1.013,0.943,���k��,3.3,��
2017/01/26,00:20,1.046,1.780,1.151,2.004,1.383,0.547,1.012,0.943,��,2.5,��
2017/01/26,00:30,1.044,1.781,1.150,2.001,1.382,0.547,1.012,0.942,��쐼,1.2,��
2017/01/26,00:40,1.047,1.776,1.148,2.002,1.378,0.546,1.013,0.944,��쓌,0.6,��
2017/01/26,00:50,1.046,1.781,1.153,2.000,1.380,0.549,1.014,0.942,��쓌,1.1,��
2017/01/26,01:00,1.044,1.776,1.151,2.003,1.381,0.548,1.014,0.942,��쐼,1.2,��
2017/01/26,01:10,1.045,1.780,1.151,2.002,1.382,0.547,1.013,0.945,���쐼,2.2,��
2017/01/26,01:20,1.046,1.775,1.152,2.002,1.381,0.547,1.012,0.943,��,2.5,��
2017/01/26,01:30,1.045,1.778,1.149,2.004,1.379,0.547,1.013,0.945,���쐼,1.7,��
2017/01/26,01:40,1.041,1.780,1.148,2.003,1.380,0.549,1.014,0.943,���쐼,2.3,��
2017/01/26,01:50,1.044,1.776,1.151,2.001,1.381,0.547,1.012,0.943,�쐼,3.2,��
2017/01/26,02:00,1.044,1.775,1.150,2.001,1.382,0.549,1.012,0.944,���쐼,3.6,��
2017/01/26,02:10,1.043,1.778,1.149,2.001,1.378,0.549,1.013,0.943,���쐼,3.1,��
2017/01/26,02:20,1.043,1.778,1.150,2.000,1.381,0.546,1.012,0.943,���쐼,3.1,��
2017/01/26,02:30,1.041,1.776,1.148,2.001,1.379,0.548,1.012,0.943,��,3.7,��
2017/01/26,02:40,1.044,1.775,1.147,2.002,1.380,0.549,1.011,0.943,��,3.3,��
2017/01/26,02:50,1.043,1.780,1.151,2.003,1.381,0.547,1.014,0.943,��,2.9,��
2017/01/26,03:00,1.043,1.778,1.149,2.000,1.380,0.548,1.013,0.944,��,2.3,��
2017/01/26,03:10,1.042,1.777,1.148,2.001,1.378,0.548,1.014,0.942,��,1.7,��
2017/01/26,03:20,1.043,1.778,1.149,2.000,1.378,0.548,1.011,0.944,���쐼,1.4,��
2017/01/26,03:30,1.041,1.777,1.147,1.998,1.378,0.548,1.013,0.943,��,1.7,��
2017/01/26,03:40,1.043,1.778,1.148,2.000,1.379,0.548,1.013,0.942,��,2.6,��
2017/01/26,03:50,1.041,1.774,1.146,2.001,1.378,0.547,1.013,0.942,���k��,3.6,��
2017/01/26,04:00,1.044,1.775,1.149,1.999,1.378,0.549,1.013,0.942,��,4.1,��
2017/01/26,04:10,1.043,1.778,1.149,2.000,1.377,0.548,1.012,0.943,��,4.4,��
2017/01/26,04:20,1.042,1.776,1.147,2.000,1.376,0.547,1.014,0.943,���쐼,3.4,��
2017/01/26,04:30,1.042,1.776,1.146,2.003,1.377,0.548,1.012,0.943,���쐼,3.7,��
2017/01/26,04:40,1.044,1.779,1.149,2.000,1.375,0.547,1.013,0.941,���쐼,3.4,��
2017/01/26,04:50,1.044,1.778,1.149,1.999,1.373,0.546,1.013,0.943,��,4.3,��
2017/01/26,05:00,1.044,1.775,1.148,2.000,1.379,0.549,1.011,0.943,��,3.8,��
2017/01/26,05:10,1.041,1.775,1.148,2.001,1.375,0.547,1.011,0.942,��,3.7,��
2017/01/26,05:20,1.042,1.776,1.148,2.001,1.377,0.548,1.013,0.943,���k��,4.1,��
2017/01/26,05:30,1.042,1.775,1.149,1.999,1.375,0.548,1.012,0.941,�k��,3.2,��
2017/01/26,05:40,1.042,1.776,1.148,1.999,1.375,0.547,1.014,0.942,���k��,2.5,��
2017/01/26,05:50,1.041,1.777,1.146,1.999,1.376,0.546,1.012,0.943,���k��,3.0,��
2017/01/26,06:00,1.042,1.777,1.146,2.000,1.374,0.548,1.014,0.941,��,2.0,��
2017/01/26,06:10,1.042,1.778,1.146,1.998,1.377,0.548,1.011,0.942,��,3.0,��
2017/01/26,06:20,1.042,1.774,1.149,1.999,1.375,0.546,1.012,0.944,��,3.3,��
2017/01/26,06:30,1.041,1.771,1.149,1.998,1.373,0.544,1.011,0.943,��,2.6,��
2017/01/26,06:40,1.041,1.773,1.146,1.997,1.374,0.547,1.013,0.941,��,2.9,��
2017/01/26,06:50,1.042,1.773,1.146,1.999,1.373,0.546,1.013,0.943,��,4.2,��
2017/01/26,07:00,1.041,1.774,1.147,1.999,1.374,0.548,1.010,0.942,��,5.7,��
2017/01/26,07:10,1.042,1.772,1.144,2.000,1.376,0.547,1.013,0.942,���쐼,5.1,��
2017/01/26,07:20,1.041,1.776,1.146,2.000,1.376,0.547,1.012,0.943,���쐼,5.2,��
2017/01/26,07:30,1.043,1.772,1.147,2.001,1.374,0.546,1.010,0.943,��,5.6,��
2017/01/26,07:40,1.042,1.774,1.143,2.000,1.374,0.547,1.013,0.943,��,5.9,��
2017/01/26,07:50,1.044,1.776,1.146,2.002,1.375,0.547,1.013,0.942,��,5.6,��
2017/01/26,08:00,1.043,1.776,1.150,2.000,1.373,0.548,1.013,0.944,��,5.7,��
2017/01/26,08:10,1.045,1.778,1.149,2.004,1.375,0.548,1.014,0.944,���쐼,5.1,��
2017/01/26,08:20,1.044,1.773,1.148,2.002,1.373,0.546,1.013,0.944,���쐼,5.7,��
2017/01/26,08:30,1.045,1.779,1.147,2.005,1.377,0.547,1.014,0.945,���쐼,5.4,��
2017/01/26,08:40,1.047,1.772,1.148,2.003,1.376,0.547,1.013,0.944,���쐼,4.7,��
2017/01/26,08:50,1.047,1.778,1.150,2.002,1.377,0.548,1.016,0.944,���쐼,3.6,��
2017/01/26,09:00,1.047,1.779,1.151,2.003,1.378,0.548,1.013,0.945,��,1.9,��
2017/01/26,09:10,1.047,1.779,1.151,2.006,1.380,0.548,1.015,0.944,���k��,1.9,��
2017/01/26,09:20,1.049,1.782,1.152,2.003,1.381,0.550,1.016,0.945,���쐼,1.5,��
2017/01/26,09:30,1.052,1.782,1.153,2.005,1.381,0.549,1.016,0.943,���쐼,1.4,��
2017/01/26,09:40,1.051,1.780,1.148,2.005,1.383,0.549,1.018,0.946,��,3.4,��
2017/01/26,09:50,1.050,1.784,1.153,2.008,1.381,0.549,1.016,0.945,��,3.8,��
2017/01/26,10:00,1.051,1.780,1.153,2.010,1.383,0.551,1.014,0.947,���k��,3.8,��
2017/01/26,10:10,1.052,1.781,1.152,2.007,1.383,0.548,1.015,0.944,���k��,4.2,��
2017/01/26,10:20,1.051,1.781,1.156,2.007,1.383,0.550,1.013,0.945,��,5.6,��
2017/01/26,10:30,1.051,1.781,1.156,2.007,1.384,0.551,1.012,0.946,���k��,7.7,��
2017/01/26,10:40,1.052,1.780,1.154,2.004,1.385,0.551,1.015,0.946,��,6.3,��
2017/01/26,10:50,1.052,1.782,1.155,2.007,1.386,0.551,1.015,0.945,��,6.4,��
2017/01/26,11:00,1.053,1.783,1.157,2.006,1.386,0.552,1.012,0.947,���k��,5.7,��
2017/01/26,11:10,1.051,1.787,1.154,2.008,1.389,0.551,1.014,0.945,���k��,7.7,��
2017/01/26,11:20,1.053,1.782,1.157,2.009,1.387,0.550,1.014,0.947,��,6.0,��
2017/01/26,11:30,1.052,1.781,1.155,2.009,1.390,0.552,1.015,0.947,���k��,5.5,��
2017/01/26,11:40,1.054,1.783,1.151,2.012,1.389,0.550,1.016,0.947,���k��,5.7,��
2017/01/26,11:50,1.053,1.781,1.151,2.010,1.389,0.551,1.016,0.948,��,5.2,��
2017/01/26,12:00,1.054,1.782,1.153,2.010,1.394,0.552,1.017,0.948,��,4.2,��
2017/01/26,12:10,1.057,1.783,1.157,2.012,1.392,0.551,1.014,0.944,��,5.9,��
2017/01/26,12:20,1.057,1.783,1.159,2.011,1.393,0.550,1.015,0.948,��,6.8,��
2017/01/26,12:30,1.058,1.787,1.159,2.010,1.390,0.553,1.016,0.946,��,5.5,��
2017/01/26,12:40,1.058,1.784,1.159,2.012,1.391,0.552,1.015,0.948,��,7.0,��
2017/01/26,12:50,1.057,1.785,1.160,2.012,1.393,0.552,1.015,0.948,��,8.0,��
2017/01/26,13:00,1.056,1.786,1.159,2.009,1.391,0.552,1.014,0.948,��,6.9,��
2017/01/26,13:10,1.059,1.785,1.160,2.015,1.392,0.553,1.016,0.949,��,7.9,��
2017/01/26,13:20,1.056,1.787,1.159,2.014,1.394,0.553,1.016,0.948,��,8.4,��
2017/01/26,13:30,1.058,1.787,1.160,2.012,1.395,0.553,1.018,0.946,��,7.5,��
2017/01/26,13:40,1.058,1.788,1.160,2.013,1.391,0.553,1.018,0.950,��,6.6,�L
2017/01/26,13:50,1.058,1.788,1.162,2.013,1.394,0.553,1.017,0.950,��,7.8,�L
2017/01/26,14:00,1.055,1.789,1.161,2.009,1.394,0.553,1.018,0.947,��,8.1,�L
2017/01/26,14:10,1.057,1.789,1.156,2.014,1.394,0.553,1.018,0.945,��,7.8,��
2017/01/26,14:20,1.060,1.787,1.159,2.013,1.396,0.554,1.019,0.944,��,7.9,��
2017/01/26,14:30,1.060,1.788,1.160,2.013,1.395,0.553,1.018,0.946,���쐼,8.1,��
2017/01/26,14:40,1.057,1.785,1.162,2.016,1.394,0.553,1.019,0.946,��,7.6,��
2017/01/26,14:50,1.060,1.784,1.164,2.010,1.395,0.553,1.021,0.946,��,7.8,��
2017/01/26,15:00,1.059,1.787,1.163,2.014,1.393,0.554,1.020,0.948,��,6.8,��
2017/01/26,15:10,1.058,1.786,1.162,2.015,1.395,0.554,1.019,0.947,��,7.2,��
2017/01/26,15:20,1.061,1.786,1.160,2.015,1.392,0.554,1.018,0.948,��,6.8,��
2017/01/26,15:30,1.058,1.790,1.163,2.014,1.393,0.553,1.020,0.949,��,6.0,��
2017/01/26,15:40,1.062,1.790,1.159,2.014,1.395,0.553,1.019,0.947,���쐼,6.9,��
2017/01/26,15:50,1.060,1.791,1.161,2.014,1.392,0.555,1.019,0.946,��,7.3,��
2017/01/26,16:00,1.059,1.792,1.161,2.016,1.391,0.554,1.018,0.949,��,6.0,��
2017/01/26,16:10,1.058,1.794,1.162,2.018,1.394,0.554,1.018,0.946,��,6.5,��
2017/01/26,16:20,1.059,1.789,1.161,2.014,1.395,0.554,1.018,0.948,��,5.6,��
2017/01/26,16:30,1.058,1.789,1.162,2.015,1.396,0.555,1.018,0.948,��,6.1,��
2017/01/26,16:40,1.058,1.794,1.160,2.014,1.395,0.554,1.017,0.947,���k��,6.7,��
2017/01/26,16:50,1.057,1.792,1.160,2.017,1.395,0.555,1.019,0.946,��,6.9,��
2017/01/26,17:00,1.058,1.790,1.162,2.011,1.393,0.554,1.018,0.947,��,6.5,��
2017/01/26,17:10,1.057,1.791,1.160,2.014,1.394,0.554,1.016,0.945,��,5.3,��
2017/01/26,17:20,1.055,1.788,1.162,2.015,1.391,0.551,1.018,0.948,��,4.6,��
2017/01/26,17:30,1.057,1.790,1.162,2.012,1.392,0.553,1.017,0.947,��,3.6,��
2017/01/26,17:40,1.057,1.789,1.159,2.013,1.393,0.553,1.018,0.945,��,4.6,��
2017/01/26,17:50,1.055,1.789,1.160,2.013,1.396,0.553,1.017,0.948,��,5.7,��
2017/01/26,18:00,1.055,1.788,1.157,2.016,1.394,0.554,1.017,0.947,��,7.5,��
2017/01/26,18:10,1.056,1.790,1.158,2.014,1.392,0.553,1.016,0.946,��,6.9,��
2017/01/26,18:20,1.058,1.788,1.160,2.013,1.393,0.552,1.015,0.946,���k��,6.2,��
2017/01/26,18:30,1.056,1.789,1.161,2.016,1.394,0.552,1.018,0.947,���k��,5.2,��
2017/01/26,18:40,1.055,1.789,1.160,2.011,1.393,0.552,1.016,0.948,���k��,6.7,��
2017/01/26,18:50,1.056,1.787,1.159,2.014,1.392,0.555,1.015,0.947,���k��,8.0,��
2017/01/26,19:00,1.054,1.786,1.159,2.015,1.393,0.552,1.014,0.947,���k��,6.9,��
2017/01/26,19:10,1.056,1.789,1.161,2.013,1.392,0.552,1.017,0.945,��,6.2,��
2017/01/26,19:20,1.056,1.789,1.159,2.013,1.396,0.552,1.015,0.947,��,5.1,��
2017/01/26,19:30,1.056,1.789,1.159,2.012,1.393,0.553,1.016,0.948,��,6.0,��
2017/01/26,19:40,1.054,1.789,1.159,2.015,1.392,0.551,1.016,0.945,��,5.9,��
2017/01/26,19:50,1.053,1.788,1.156,2.010,1.392,0.552,1.015,0.946,��,4.8,��
2017/01/26,20:00,1.054,1.789,1.158,2.012,1.392,0.551,1.015,0.945,���쐼,4.1,��
2017/01/26,20:10,1.055,1.787,1.158,2.012,1.391,0.553,1.015,0.947,���쐼,3.5,��
2017/01/26,20:20,1.055,1.786,1.155,2.012,1.392,0.552,1.014,0.947,���쐼,3.3,��
2017/01/26,20:30,1.055,1.785,1.158,2.010,1.392,0.551,1.016,0.944,���쐼,3.1,��
2017/01/26,20:40,1.052,1.788,1.157,2.010,1.392,0.552,1.016,0.945,���쐼,4.0,��
2017/01/26,20:50,1.054,1.786,1.156,2.011,1.391,0.553,1.015,0.945,���쐼,4.2,��
2017/01/26,21:00,1.054,1.787,1.158,2.009,1.391,0.552,1.015,0.946,�쐼,3.6,��
2017/01/26,21:10,1.054,1.786,1.156,2.011,1.393,0.551,1.016,0.945,�쐼,6.1,��
2017/01/26,21:20,1.054,1.789,1.156,2.011,1.391,0.550,1.015,0.945,�쐼,6.6,��
2017/01/26,21:30,1.054,1.787,1.156,2.009,1.392,0.549,1.015,0.944,�쐼,6.2,��
2017/01/26,21:40,1.054,1.787,1.157,2.007,1.391,0.552,1.014,0.947,�쐼,5.2,��
2017/01/26,21:50,1.054,1.785,1.158,2.010,1.391,0.551,1.017,0.944,�쐼,6.7,��
2017/01/26,22:00,1.054,1.786,1.155,2.011,1.390,0.552,1.017,0.946,�쐼,5.7,��
2017/01/26,22:10,1.056,1.786,1.157,2.008,1.391,0.550,1.016,0.944,�쐼,5.7,��
2017/01/26,22:20,1.055,1.787,1.155,2.013,1.391,0.551,1.015,0.945,�쐼,6.3,��
2017/01/26,22:30,1.054,1.786,1.157,2.010,1.389,0.552,1.015,0.947,�쐼,6.7,��
2017/01/26,22:40,1.053,1.785,1.156,2.011,1.388,0.551,1.017,0.945,�쐼,5.9,��
2017/01/26,22:50,1.054,1.786,1.156,2.009,1.391,0.552,1.014,0.944,�쐼,6.4,��
2017/01/26,23:00,1.054,1.786,1.157,2.012,1.392,0.552,1.015,0.944,�쐼,5.7,��
2017/01/26,23:10,1.053,1.785,1.155,2.010,1.392,0.552,1.016,0.945,��쐼,4.1,��
2017/01/26,23:20,1.052,1.786,1.155,2.011,1.392,0.553,1.016,0.946,��쐼,3.0,��
2017/01/26,23:30,1.056,1.788,1.156,2.008,1.389,0.550,1.015,0.946,��쐼,2.2,��
2017/01/26,23:40,1.054,1.787,1.155,2.010,1.391,0.551,1.016,0.946,��,2.9,��
2017/01/26,23:50,1.053,1.786,1.158,2.010,1.389,0.551,1.015,0.945,��,4.2,��
